Seminole, TX

1:25 PM CST on February 23, 2017 (GMT -0600)
Seminole

Weather History for KGNC - February, 2014

Change the Weather History Date:

Wednesday, February 12, 2014

  Actual Average (KHOB) Record (KHOB)
Temperature  
Mean Temperature 39 °F -  
Max Temperature 59 °F 59 °F 90 °F (1956)
Min Temperature 19 °F 32 °F 17 °F (2011)
Degree Days  
Heating Degree Days 26    
Moisture  
Dew Point 21 °F    
Average Humidity 54    
Maximum Humidity 98    
Minimum Humidity 21    
Precipitation  
Precipitation 0.00 in - - ()
Sea Level Pressure  
Sea Level Pressure 30.11 in    
Wind  
Wind Speed 6 mph (WNW)    
Max Wind Speed 17 mph    
Max Gust Speed 26 mph    
Visibility 8 miles    
Events      
Averages and records for this station are not official NWS values.
T = Trace of Precipitation, MM = Missing Value Source: NWS Daily Summary

Daily Weather History Graph

Daily Weather History Graph

Search for Another Location

Airport or City:

Trip Planner

Search our weather history database for the weather conditions in past years. The results will help you decide how hot, cold, wet, or windy it might be!

Date:

Astronomy

Feb. 12, 2014 Rise Set
Actual Time 7:36 AM CST 6:33 PM CST
Civil Twilight 7:11 AM CST 6:58 PM CST
Nautical Twilight 6:42 AM CST 7:27 PM CST
Astronomical Twilight 6:13 AM CST 7:56 PM CST
Moon 4:51 PM CST (2/12) 5:51 AM CST (2/12)
Length of Visible Light 11h 47m
Length of Day
10h 57m
Waxing Gibbous, 95% of the Moon is Illuminated
Feb 12
Waxing Gibbous
Feb 14
Full
Feb 22
Last Quarter
Mar 1
New
Mar 8
First Quarter

Hourly Weather History & Observations

Time (CST) Temp. Windchill Dew Point Humidity Pressure Visibility Wind Dir Wind Speed Gust Speed Precip Events Conditions
12:15 AM 21.2 °F 13.6 °F 18.3 °F 89% 30.12 in 10.0 mi SSW 5.8 mph - N/A   Clear
12:35 AM 22.1 °F 15.9 °F 18.9 °F 87% 30.12 in 10.0 mi SSW 4.6 mph - N/A   Clear
12:55 AM 21.9 °F 17.2 °F 18.9 °F 88% 30.12 in 7.0 mi WSW 3.5 mph - N/A   Clear
1:15 AM 21.2 °F 14.9 °F 18.3 °F 89% 30.11 in 7.0 mi SW 4.6 mph - N/A   Clear
1:35 AM 20.5 °F - 18.1 °F 91% 30.11 in 7.0 mi Calm Calm - N/A   Clear
1:55 AM 20.3 °F 13.8 °F 18.0 °F 91% 30.11 in 7.0 mi WSW 4.6 mph - N/A   Clear
2:15 AM 19.9 °F - 17.6 °F 91% 30.11 in 7.0 mi Calm Calm - N/A   Clear
2:35 AM 20.1 °F - 18.0 °F 91% 30.10 in 5.0 mi Calm Calm - N/A   Clear
2:55 AM 19.8 °F - 17.2 °F 90% 30.10 in 5.0 mi Calm Calm - N/A   Clear
3:15 AM 19.4 °F - 17.6 °F 93% 30.09 in 5.0 mi Calm Calm - N/A   Clear
3:35 AM 19.4 °F - 18.0 °F 94% 30.09 in 5.0 mi Calm Calm - N/A   Clear
3:55 AM 19.4 °F - 18.0 °F 94% 30.09 in 4.0 mi Calm Calm - N/A   Clear
4:15 AM 19.4 °F 12.8 °F 18.1 °F 95% 30.08 in 4.0 mi West 4.6 mph - N/A   Clear
4:35 AM 19.4 °F 11.5 °F 18.1 °F 95% 30.08 in 4.0 mi WSW 5.8 mph - N/A   Clear
4:55 AM 19.9 °F 12.1 °F 18.5 °F 94% 30.08 in 4.0 mi WSW 5.8 mph - N/A   Clear
5:15 AM 20.1 °F 13.6 °F 18.7 °F 94% 30.08 in 4.0 mi West 4.6 mph - N/A   Clear
5:35 AM 21.7 °F 15.5 °F 20.7 °F 96% 30.09 in 4.0 mi West 4.6 mph - N/A   Clear
5:55 AM 22.3 °F 17.6 °F 20.7 °F 93% 30.10 in 4.0 mi NW 3.5 mph - N/A   Clear
6:15 AM 21.4 °F - 19.9 °F 94% 30.11 in 4.0 mi Calm Calm - N/A   Clear
6:35 AM 22.1 °F - 21.6 °F 98% 30.12 in 4.0 mi Calm Calm - N/A   Clear
6:55 AM 23.2 °F 15.0 °F 22.5 °F 97% 30.12 in 4.0 mi WNW 6.9 mph - N/A   Clear
7:15 AM 25.5 °F - 23.9 °F 94% 30.13 in 5.0 mi Calm Calm - N/A   Clear
7:35 AM 25.2 °F 14.4 °F 23.5 °F 94% 30.13 in 5.0 mi NW 11.5 mph - N/A   Clear
7:55 AM 27.5 °F 18.0 °F 24.3 °F 88% 30.14 in 5.0 mi NW 10.4 mph - N/A   Clear
8:15 AM 29.8 °F 20.3 °F 25.2 °F 83% 30.14 in 7.0 mi NNW 11.5 mph - N/A   Clear
8:35 AM 34.3 °F 25.9 °F 26.4 °F 73% 30.14 in 10.0 mi NNW 11.5 mph - N/A   Clear
8:55 AM 39.2 °F 31.2 °F 25.3 °F 58% 30.16 in 10.0 mi North 13.8 mph 20.7 mph N/A   Clear
9:15 AM 41.7 °F 34.1 °F 24.8 °F 51% 30.18 in 10.0 mi North 15.0 mph 23.0 mph N/A   Clear
9:35 AM 43.9 °F 36.8 °F 24.4 °F 46% 30.19 in 10.0 mi NNE 15.0 mph 21.9 mph N/A   Clear
9:55 AM 45.5 °F 38.9 °F 25.2 °F 45% 30.21 in 10.0 mi NNE 15.0 mph 21.9 mph N/A   Clear
10:15 AM 46.9 °F - 25.3 °F 43% 30.20 in 10.0 mi NNE 15.0 mph 24.2 mph N/A   Clear
10:35 AM 48.6 °F - 25.3 °F 40% 30.20 in 10.0 mi NNE 15.0 mph 23.0 mph N/A   Clear
10:55 AM 50.5 °F - 24.8 °F 37% 30.21 in 10.0 mi NNE 17.3 mph 24.2 mph N/A   Clear
11:15 AM 51.8 °F - 24.6 °F 35% 30.21 in 10.0 mi NNE 16.1 mph 26.5 mph N/A   Clear
11:35 AM 52.7 °F - 24.4 °F 33% 30.21 in 10.0 mi NE 16.1 mph 23.0 mph N/A   Clear
11:55 AM 53.8 °F - 24.4 °F 32% 30.20 in 10.0 mi NNE 16.1 mph 20.7 mph N/A   Clear
12:15 PM 55.0 °F - 23.9 °F 30% 30.20 in 10.0 mi NNE 13.8 mph 19.6 mph N/A   Clear
12:35 PM 55.8 °F - 23.5 °F 29% 30.19 in 10.0 mi NNE 12.7 mph 18.4 mph N/A   Clear
12:55 PM 56.7 °F - 23.2 °F 27% 30.18 in 10.0 mi NE 11.5 mph 18.4 mph N/A   Clear
1:15 PM 57.4 °F - 22.8 °F 26% 30.17 in 10.0 mi NE 13.8 mph 20.7 mph N/A   Clear
1:35 PM 57.9 °F - 22.3 °F 25% 30.16 in 10.0 mi North 5.8 mph 9.2 mph N/A   Clear
1:55 PM 58.6 °F - 21.9 °F 24% 30.15 in 10.0 mi NE 10.4 mph - N/A   Clear
2:15 PM 58.6 °F - 21.7 °F 24% 30.12 in 10.0 mi North 9.2 mph - N/A   Clear
2:35 PM 58.5 °F - 21.0 °F 24% 30.12 in 10.0 mi NNE 5.8 mph - N/A   Clear
2:55 PM 58.8 °F - 20.3 °F 23% 30.11 in 10.0 mi NNW 8.1 mph - N/A   Clear
3:15 PM 58.1 °F - 19.6 °F 22% 30.11 in 10.0 mi Calm Calm - N/A   Clear
3:35 PM 59.0 °F - 19.4 °F 22% 30.09 in 10.0 mi NNW 8.1 mph - N/A   Clear
3:55 PM 58.5 °F - 19.6 °F 22% 30.08 in 10.0 mi NE 3.5 mph - N/A   Clear
4:15 PM 58.6 °F - 19.2 °F 22% 30.08 in 10.0 mi SW 3.5 mph - N/A   Clear
4:35 PM 58.8 °F - 19.6 °F 22% 30.08 in 10.0 mi North 4.6 mph - N/A   Clear
4:55 PM 58.5 °F - 18.7 °F 21% 30.09 in 10.0 mi WNW 3.5 mph - N/A   Clear
5:15 PM 58.6 °F - 18.5 °F 21% 30.08 in 10.0 mi Calm Calm - N/A   Clear
5:35 PM 58.3 °F - 18.9 °F 22% 30.09 in 10.0 mi WNW 3.5 mph - N/A   Clear
5:55 PM 57.6 °F - 18.5 °F 22% 30.07 in 10.0 mi SSW 3.5 mph - N/A   Clear
6:15 PM 55.8 °F - 18.5 °F 23% 30.07 in 10.0 mi Calm Calm - N/A   Clear
6:35 PM 53.4 °F - 19.0 °F 26% 30.07 in 10.0 mi SSW 3.5 mph - N/A   Clear
6:55 PM 50.5 °F - 19.0 °F 29% 30.07 in 10.0 mi South 4.6 mph - N/A   Clear
7:15 PM 49.1 °F - 19.4 °F 31% 30.07 in 10.0 mi South 4.6 mph - N/A   Clear
7:35 PM 46.9 °F - 19.4 °F 34% 30.07 in 10.0 mi South 6.9 mph - N/A   Clear
7:55 PM 46.4 °F 43.5 °F 19.9 °F 35% 30.07 in 10.0 mi SSW 5.8 mph - N/A   Clear
8:15 PM 44.6 °F 40.7 °F 18.9 °F 36% 30.06 in 10.0 mi SSW 6.9 mph - N/A   Clear
8:35 PM 45.1 °F 42.0 °F 19.0 °F 35% 30.07 in 10.0 mi SSW 5.8 mph - N/A   Clear
8:55 PM 43.5 °F 41.9 °F 18.3 °F 36% 30.07 in 10.0 mi South 3.5 mph - N/A   Clear
9:15 PM 44.2 °F 39.7 °F 18.7 °F 36% 30.05 in 10.0 mi SSW 8.1 mph - N/A   Clear
9:35 PM 43.9 °F 39.3 °F 18.5 °F 36% 30.05 in 10.0 mi SSW 8.1 mph - N/A   Clear
9:55 PM 43.5 °F 38.3 °F 19.0 °F 38% 30.04 in 10.0 mi SSW 9.2 mph - N/A   Clear
10:15 PM 42.8 °F 38.0 °F 19.4 °F 39% 30.03 in 10.0 mi SSW 8.1 mph - N/A   Clear
10:35 PM 41.0 °F 35.8 °F 19.2 °F 42% 30.02 in 10.0 mi SW 8.1 mph - N/A   Clear
10:55 PM 40.3 °F 37.1 °F 19.2 °F 43% 30.02 in 10.0 mi SW 4.6 mph - N/A   Clear
11:15 PM 38.5 °F 33.4 °F 19.4 °F 46% 30.01 in 10.0 mi SW 6.9 mph - N/A   Clear
11:35 PM 39.4 °F 34.5 °F 19.4 °F 45% 30.01 in 10.0 mi WSW 6.9 mph - N/A   Clear
11:55 PM 37.9 °F 35.5 °F 19.0 °F 47% 30.01 in 10.0 mi SW 3.5 mph - N/A   Clear